TimeEDT,TemperatureF,Dew PointF,Humidity,Sea Level PressureIn,VisibilityMPH,Wind Direction,Wind SpeedMPH,Gust SpeedMPH,PrecipitationIn,Events,Conditions,WindDirDegrees,DateUTC
12:56 AM,55.0,53.1,93,29.96,8.0,NE,5.8,-,0.02,Rain,Light Rain,40,2013-05-05 04:56:00
1:23 AM,55.4,53.6,94,29.95,8.0,NE,5.8,-,0.00,Rain,Light Rain,40,2013-05-05 05:23:00
1:56 AM,55.0,53.1,93,29.95,8.0,NE,5.8,-,0.00,Rain,Light Rain,40,2013-05-05 05:56:00
2:56 AM,55.0,53.1,93,29.92,7.0,NE,8.1,-,0.04,Rain,Light Rain,50,2013-05-05 06:56:00
3:56 AM,55.0,52.0,89,29.91,7.0,ENE,6.9,-,0.03,Rain,Light Rain,60,2013-05-05 07:56:00
4:56 AM,55.0,52.0,89,29.89,7.0,ENE,8.1,-,0.07,Rain,Light Rain,60,2013-05-05 08:56:00
5:25 AM,55.4,53.6,94,29.88,6.0,ENE,11.5,-,0.06,Rain,Rain,60,2013-05-05 09:25:00
5:56 AM,55.0,53.1,93,29.88,8.0,ENE,10.4,-,0.10,Rain,Light Rain,60,2013-05-05 09:56:00
6:56 AM,54.0,52.0,93,29.90,5.0,East,11.5,-,0.15,Rain,Rain,80,2013-05-05 10:56:00
7:23 AM,53.6,51.8,94,29.89,5.0,East,11.5,17.3,0.06,Rain,Light Rain,80,2013-05-05 11:23:00
7:49 AM,53.6,51.8,94,29.90,6.0,East,12.7,17.3,0.09,Rain,Light Rain,80,2013-05-05 11:49:00
7:56 AM,54.0,51.1,90,29.90,6.0,ENE,12.7,-,0.09,Rain,Light Rain,70,2013-05-05 11:56:00
8:56 AM,54.0,52.0,93,29.89,6.0,East,10.4,-,0.12,Rain,Light Rain,80,2013-05-05 12:56:00
9:56 AM,55.0,51.1,86,29.89,9.0,East,12.7,23.0,0.01,Rain,Light Rain,80,2013-05-05 13:56:00
10:35 AM,55.4,51.8,88,29.89,10.0,East,13.8,21.9,0.00,Rain,Light Rain,90,2013-05-05 14:35:00
10:56 AM,55.9,51.1,84,29.89,10.0,East,17.3,26.5,0.00,,Mostly Cloudy,80,2013-05-05 14:56:00
11:56 AM,55.0,51.1,86,29.90,9.0,East,13.8,-,0.01,Rain,Light Rain,80,2013-05-05 15:56:00
12:56 PM,55.9,51.1,84,29.89,10.0,East,15.0,21.9,0.00,,Overcast,90,2013-05-05 16:56:00
1:56 PM,55.0,48.9,80,29.90,10.0,East,16.1,23.0,N/A,,Overcast,90,2013-05-05 17:56:00
2:56 PM,54.0,51.1,90,29.90,8.0,East,11.5,-,0.01,Rain,Light Rain,80,2013-05-05 18:56:00
3:42 PM,53.6,50.0,88,29.89,9.0,East,16.1,21.9,0.00,Rain,Light Rain,80,2013-05-05 19:42:00
3:56 PM,54.0,50.0,86,29.89,10.0,East,10.4,21.9,0.00,Rain,Light Rain,80,2013-05-05 19:56:00
4:56 PM,53.1,48.9,86,29.88,10.0,East,18.4,23.0,0.01,Rain,Light Rain,80,2013-05-05 20:56:00
5:56 PM,53.1,48.9,86,29.88,10.0,ESE,15.0,23.0,0.00,Rain,Light Rain,110,2013-05-05 21:56:00
6:26 PM,53.6,48.2,82,29.88,10.0,East,18.4,-,0.00,,Overcast,90,2013-05-05 22:26:00
6:56 PM,53.1,48.9,86,29.88,8.0,East,15.0,19.6,0.00,,Overcast,100,2013-05-05 22:56:00
7:05 PM,53.6,48.2,82,29.88,4.0,East,8.1,19.6,N/A,,Overcast,90,2013-05-05 23:05:00
7:13 PM,51.8,50.0,94,29.88,2.5,East,10.4,-,0.00,Rain,Light Rain,80,2013-05-05 23:13:00
7:20 PM,51.8,50.0,94,29.88,3.0,East,9.2,-,0.00,Rain,Light Rain,80,2013-05-05 23:20:00
7:56 PM,52.0,50.0,93,29.87,9.0,ENE,12.7,-,0.03,Rain,Light Rain,70,2013-05-05 23:56:00
8:14 PM,51.8,48.2,88,29.88,10.0,East,12.7,19.6,0.00,Rain,Light Rain,80,2013-05-06 00:14:00
8:26 PM,51.8,50.0,94,29.88,10.0,East,6.9,-,0.00,Rain,Light Rain,80,2013-05-06 00:26:00
8:56 PM,53.1,50.0,89,29.88,10.0,East,9.2,-,0.00,Rain,Light Rain,80,2013-05-06 00:56:00
9:46 PM,53.6,50.0,88,29.89,10.0,ENE,5.8,-,0.00,,Overcast,70,2013-05-06 01:46:00
9:56 PM,53.1,50.0,89,29.89,10.0,ENE,5.8,-,0.00,,Overcast,70,2013-05-06 01:56:00
10:56 PM,54.0,50.0,86,29.88,10.0,NE,5.8,-,N/A,,Overcast,40,2013-05-06 02:56:00
11:12 PM,53.6,50.0,88,29.88,10.0,NE,3.5,-,N/A,,Overcast,50,2013-05-06 03:12:00
11:56 PM,55.0,51.1,86,29.87,10.0,ENE,4.6,-,N/A,,Overcast,60,2013-05-06 03:56:00